Time,TemperatureF,DewpointF,PressureIn,WindDirection,WindDirectionDegrees,WindSpeedMPH,WindSpeedGustMPH,Humidity,HourlyPrecipIn,Conditions,Clouds,dailyrainin,SoftwareType,DateUTC
2013-03-02 00:00:00,43.3,13.2,30.27,NE,45,0.0,-999.0,29,-99.99,,,0.00,Acu-Link.com,2013-03-02 08:00:00,
2013-03-02 00:15:00,42.1,13.7,30.27,ESE,112,0.0,-999.0,31,-99.99,,,0.00,Acu-Link.com,2013-03-02 08:15:00,
2013-03-02 00:30:00,41.5,14.6,30.28,East,90,0.0,-999.0,33,-99.99,,,0.00,Acu-Link.com,2013-03-02 08:30:00,
2013-03-02 00:45:00,41.9,14.2,30.27,West,270,0.0,-999.0,32,-99.99,,,0.00,Acu-Link.com,2013-03-02 08:45:00,
2013-03-02 01:00:00,42.1,13.7,30.27,SSW,202,0.0,-999.0,31,-99.99,,,0.00,Acu-Link.com,2013-03-02 09:00:00,
2013-03-02 01:18:00,41.9,14.9,30.27,NNE,22,0.0,-999.0,33,-99.99,,,0.00,Acu-Link.com,2013-03-02 09:18:00,
2013-03-02 01:33:00,39.7,16.2,30.26,NE,45,0.0,-999.0,38,-99.99,,,0.00,Acu-Link.com,2013-03-02 09:33:00,
2013-03-02 01:48:00,39.7,15.6,30.27,East,90,0.0,-999.0,37,-99.99,,,0.00,Acu-Link.com,2013-03-02 09:48:00,
2013-03-02 02:03:00,39.7,16.8,30.25,NE,45,0.0,-999.0,39,-99.99,,,0.00,Acu-Link.com,2013-03-02 10:03:00,
2013-03-02 02:18:00,39.6,15.5,30.24,ESE,112,0.0,-999.0,37,-99.99,,,0.00,Acu-Link.com,2013-03-02 10:18:00,
2013-03-02 02:33:00,40.1,15.3,30.23,NE,45,0.0,-999.0,36,-99.99,,,0.00,Acu-Link.com,2013-03-02 10:33:00,
2013-03-02 02:49:00,40.1,14.0,30.23,East,90,0.0,-999.0,34,-99.99,,,0.00,Acu-Link.com,2013-03-02 10:49:00,
2013-03-02 03:04:00,40.5,15.0,30.23,ENE,67,0.0,-999.0,35,-99.99,,,0.00,Acu-Link.com,2013-03-02 11:04:00,
2013-03-02 03:19:00,41.2,13.6,30.23,NE,45,0.0,-999.0,32,-99.99,,,0.00,Acu-Link.com,2013-03-02 11:19:00,
2013-03-02 03:34:00,41.2,12.9,30.21,ENE,67,0.0,-999.0,31,-99.99,,,0.00,Acu-Link.com,2013-03-02 11:34:00,
2013-03-02 03:49:00,41.5,12.4,30.22,ENE,67,0.0,-999.0,30,-99.99,,,0.00,Acu-Link.com,2013-03-02 11:49:00,
2013-03-02 04:04:00,42.8,13.5,30.22,ENE,67,0.0,-999.0,30,-99.99,,,0.00,Acu-Link.com,2013-03-02 12:04:00,
2013-03-02 04:19:00,41.9,14.2,30.22,ENE,67,0.0,-999.0,32,-99.99,,,0.00,Acu-Link.com,2013-03-02 12:19:00,
2013-03-02 04:34:00,41.7,14.7,30.23,ENE,67,0.0,-999.0,33,-99.99,,,0.00,Acu-Link.com,2013-03-02 12:34:00,
2013-03-02 04:49:00,43.2,12.3,30.22,NE,45,0.0,-999.0,28,-99.99,,,0.00,Acu-Link.com,2013-03-02 12:49:00,
2013-03-02 05:05:00,41.9,11.2,30.22,NNE,22,0.0,-999.0,28,-99.99,,,0.00,Acu-Link.com,2013-03-02 13:05:00,
2013-03-02 05:20:00,43.2,13.1,30.22,NE,45,0.0,-999.0,29,-99.99,,,0.00,Acu-Link.com,2013-03-02 13:20:00,
2013-03-02 05:35:00,43.0,12.9,30.24,East,90,0.0,-999.0,29,-99.99,,,0.00,Acu-Link.com,2013-03-02 13:35:00,
2013-03-02 05:50:00,42.1,11.4,30.22,NNE,22,0.0,-999.0,28,-99.99,,,0.00,Acu-Link.com,2013-03-02 13:50:00,
2013-03-02 06:05:00,41.7,12.6,30.22,ENE,67,0.0,-999.0,30,-99.99,,,0.00,Acu-Link.com,2013-03-02 14:05:00,
2013-03-02 06:20:00,41.7,12.6,30.22,ESE,112,0.0,-999.0,30,-99.99,,,0.00,Acu-Link.com,2013-03-02 14:20:00,
2013-03-02 06:35:00,41.2,14.3,30.22,NW,315,0.0,-999.0,33,-99.99,,,0.00,Acu-Link.com,2013-03-02 14:35:00,
2013-03-02 06:50:00,41.9,14.9,30.23,NE,45,0.0,-999.0,33,-99.99,,,0.00,Acu-Link.com,2013-03-02 14:50:00,
2013-03-02 07:05:00,42.4,14.7,30.23,NE,45,0.0,-999.0,32,-99.99,,,0.00,Acu-Link.com,2013-03-02 15:05:00,
2013-03-02 07:21:00,48.6,17.0,30.23,NE,45,0.0,-999.0,28,-99.99,,,0.00,Acu-Link.com,2013-03-02 15:21:00,
2013-03-02 07:36:00,48.2,19.7,30.23,NNW,337,0.0,-999.0,32,-99.99,,,0.00,Acu-Link.com,2013-03-02 15:36:00,
2013-03-02 07:51:00,49.8,20.4,30.23,ESE,112,0.0,-999.0,31,-99.99,,,0.00,Acu-Link.com,2013-03-02 15:51:00,
2013-03-02 08:06:00,50.4,20.9,30.23,WNW,292,0.0,-999.0,31,-99.99,,,0.00,Acu-Link.com,2013-03-02 16:06:00,
2013-03-02 08:21:00,55.9,10.4,30.23,NE,45,0.0,-999.0,16,-99.99,,,0.00,Acu-Link.com,2013-03-02 16:21:00,
2013-03-02 08:36:00,57.6,11.8,30.23,SW,225,0.0,-999.0,16,-99.99,,,0.00,Acu-Link.com,2013-03-02 16:36:00,
2013-03-02 08:51:00,58.5,11.0,30.24,SSE,157,0.0,-999.0,15,-99.99,,,0.00,Acu-Link.com,2013-03-02 16:51:00,
2013-03-02 09:06:00,60.8,7.9,30.23,SE,135,2.2,-999.0,12,-99.99,,,0.00,Acu-Link.com,2013-03-02 17:06:00,
2013-03-02 09:21:00,61.3,8.3,30.23,SW,225,0.0,-999.0,12,-99.99,,,0.00,Acu-Link.com,2013-03-02 17:21:00,
2013-03-02 09:37:00,63.1,-2.0,30.23,South,180,2.7,-999.0,7,-99.99,,,0.00,Acu-Link.com,2013-03-02 17:37:00,
2013-03-02 09:52:00,62.8,9.5,30.23,West,270,3.2,-999.0,12,-99.99,,,0.00,Acu-Link.com,2013-03-02 17:52:00,
2013-03-02 10:07:00,63.5,6.0,30.24,South,180,3.2,-999.0,10,-99.99,,,0.00,Acu-Link.com,2013-03-02 18:07:00,
2013-03-02 10:22:00,64.4,8.8,30.23,East,90,2.7,-999.0,11,-99.99,,,0.00,Acu-Link.com,2013-03-02 18:22:00,
2013-03-02 10:37:00,64.2,4.2,30.22,West,270,2.7,-999.0,9,-99.99,,,0.00,Acu-Link.com,2013-03-02 18:37:00,
2013-03-02 10:52:00,64.9,2.2,30.23,SW,225,3.2,-999.0,8,-99.99,,,0.00,Acu-Link.com,2013-03-02 18:52:00,
2013-03-02 11:07:00,66.0,-3.1,30.22,NW,315,2.7,-999.0,6,-99.99,,,0.00,Acu-Link.com,2013-03-02 19:07:00,
2013-03-02 11:22:00,66.9,0.8,30.21,WNW,292,5.3,-999.0,7,-99.99,,,0.00,Acu-Link.com,2013-03-02 19:22:00,
2013-03-02 11:37:00,65.5,7.5,30.21,WSW,247,3.7,-999.0,10,-99.99,,,0.00,Acu-Link.com,2013-03-02 19:37:00,
2013-03-02 11:52:00,64.2,6.5,30.20,SSW,202,4.7,-999.0,10,-99.99,,,0.00,Acu-Link.com,2013-03-02 19:52:00,
2013-03-02 12:08:00,65.7,5.4,30.19,ESE,112,2.7,-999.0,9,-99.99,,,0.00,Acu-Link.com,2013-03-02 20:08:00,
2013-03-02 12:23:00,65.8,5.4,30.18,South,180,3.7,-999.0,9,-99.99,,,0.00,Acu-Link.com,2013-03-02 20:23:00,
2013-03-02 12:38:00,66.0,7.9,30.18,West,270,5.3,-999.0,10,-99.99,,,0.00,Acu-Link.com,2013-03-02 20:38:00,
2013-03-02 12:53:00,66.6,8.4,30.18,SW,225,4.7,-999.0,10,-99.99,,,0.00,Acu-Link.com,2013-03-02 20:53:00,
2013-03-02 13:08:00,65.8,7.7,30.17,WSW,247,4.7,-999.0,10,-99.99,,,0.00,Acu-Link.com,2013-03-02 21:08:00,
2013-03-02 13:23:00,66.6,8.4,30.16,SW,225,4.2,-999.0,10,-99.99,,,0.00,Acu-Link.com,2013-03-02 21:23:00,
2013-03-02 13:38:00,66.6,12.4,30.17,WSW,247,5.3,-999.0,12,-99.99,,,0.00,Acu-Link.com,2013-03-02 21:38:00,
2013-03-02 13:53:00,66.9,10.7,30.15,South,180,2.7,-999.0,11,-99.99,,,0.00,Acu-Link.com,2013-03-02 21:53:00,
2013-03-02 14:08:00,65.3,11.4,30.15,West,270,4.7,-999.0,12,-99.99,,,0.00,Acu-Link.com,2013-03-02 22:08:00,
2013-03-02 14:24:00,64.2,10.6,30.15,South,180,3.7,-999.0,12,-99.99,,,0.00,Acu-Link.com,2013-03-02 22:24:00,
2013-03-02 14:39:00,66.4,8.2,30.14,WNW,292,4.2,-999.0,10,-99.99,,,0.00,Acu-Link.com,2013-03-02 22:39:00,
2013-03-02 14:54:00,65.5,5.2,30.14,SSW,202,3.2,-999.0,9,-99.99,,,0.00,Acu-Link.com,2013-03-02 22:54:00,
2013-03-02 15:09:00,64.0,6.4,30.13,NW,315,2.7,-999.0,10,-99.99,,,0.00,Acu-Link.com,2013-03-02 23:09:00,
2013-03-02 15:24:00,65.1,-0.5,30.12,West,270,3.2,-999.0,7,-99.99,,,0.00,Acu-Link.com,2013-03-02 23:24:00,
2013-03-02 15:39:00,65.5,2.7,30.12,SW,225,3.2,-999.0,8,-99.99,,,0.00,Acu-Link.com,2013-03-02 23:39:00,
2013-03-02 15:54:00,62.4,5.1,30.12,NNW,337,2.2,-999.0,10,-99.99,,,0.00,Acu-Link.com,2013-03-02 23:54:00,
2013-03-02 16:09:00,60.8,12.9,30.11,SSW,202,0.0,-999.0,15,-99.99,,,0.00,Acu-Link.com,2013-03-03 00:09:00,
2013-03-02 16:25:00,63.0,11.4,30.11,SW,225,4.2,-999.0,13,-99.99,,,0.00,Acu-Link.com,2013-03-03 00:25:00,
2013-03-02 16:40:00,61.2,16.1,30.10,WNW,292,0.0,-999.0,17,-99.99,,,0.00,Acu-Link.com,2013-03-03 00:40:00,
2013-03-02 16:55:00,59.7,14.8,30.09,WSW,247,3.7,-999.0,17,-99.99,,,0.00,Acu-Link.com,2013-03-03 00:55:00,
2013-03-02 17:10:00,59.0,16.8,30.10,NNW,337,1.1,-999.0,19,-99.99,,,0.00,Acu-Link.com,2013-03-03 01:10:00,
2013-03-02 17:25:00,58.3,18.6,30.09,SSW,202,2.7,-999.0,21,-99.99,,,0.00,Acu-Link.com,2013-03-03 01:25:00,
2013-03-02 17:40:00,56.7,18.3,30.09,South,180,2.2,-999.0,22,-99.99,,,0.00,Acu-Link.com,2013-03-03 01:40:00,
2013-03-02 17:55:00,54.9,16.8,30.11,South,180,5.8,-999.0,22,-99.99,,,0.00,Acu-Link.com,2013-03-03 01:55:00,
2013-03-02 18:11:00,53.6,16.7,30.09,South,180,2.7,-999.0,23,-99.99,,,0.00,Acu-Link.com,2013-03-03 02:11:00,
2013-03-02 18:26:00,52.2,19.2,30.09,ESE,112,2.2,-999.0,27,-99.99,,,0.00,Acu-Link.com,2013-03-03 02:26:00,
2013-03-02 18:41:00,51.8,19.7,30.10,WSW,247,2.7,-999.0,28,-99.99,,,0.00,Acu-Link.com,2013-03-03 02:41:00,
2013-03-02 18:56:00,50.9,20.6,30.10,East,90,0.0,-999.0,30,-99.99,,,0.00,Acu-Link.com,2013-03-03 02:56:00,
2013-03-02 19:11:00,50.5,20.2,30.10,West,270,0.0,-999.0,30,-99.99,,,0.00,Acu-Link.com,2013-03-03 03:11:00,
2013-03-02 19:26:00,49.6,20.2,30.11,WSW,247,2.2,-999.0,31,-99.99,,,0.00,Acu-Link.com,2013-03-03 03:26:00,
2013-03-02 19:41:00,49.6,20.2,30.10,SW,225,2.7,-999.0,31,-99.99,,,0.00,Acu-Link.com,2013-03-03 03:41:00,
2013-03-02 19:56:00,48.9,21.1,30.10,SE,135,0.0,-999.0,33,-99.99,,,0.00,Acu-Link.com,2013-03-03 03:56:00,
2013-03-02 20:11:00,49.3,22.8,30.10,SSE,157,2.7,-999.0,35,-99.99,,,0.00,Acu-Link.com,2013-03-03 04:11:00,
2013-03-02 20:27:00,49.3,22.8,30.10,ENE,67,3.2,-999.0,35,-99.99,,,0.00,Acu-Link.com,2013-03-03 04:27:00,
2013-03-02 20:42:00,49.6,21.7,30.11,WNW,292,4.2,-999.0,33,-99.99,,,0.00,Acu-Link.com,2013-03-03 04:42:00,
2013-03-02 20:57:00,49.6,21.0,30.10,SE,135,1.1,-999.0,32,-99.99,,,0.00,Acu-Link.com,2013-03-03 04:57:00,
2013-03-02 21:12:00,49.8,17.2,30.10,NNE,22,3.2,-999.0,27,-99.99,,,0.00,Acu-Link.com,2013-03-03 05:12:00,
2013-03-02 21:27:00,50.0,13.7,30.10,ENE,67,3.2,-999.0,23,-99.99,,,0.00,Acu-Link.com,2013-03-03 05:27:00,
2013-03-02 21:42:00,50.4,10.9,30.11,NW,315,2.7,-999.0,20,-99.99,,,0.00,Acu-Link.com,2013-03-03 05:42:00,
2013-03-02 21:57:00,49.5,12.3,30.10,East,90,0.0,-999.0,22,-99.99,,,0.00,Acu-Link.com,2013-03-03 05:57:00,
2013-03-02 22:13:00,50.2,10.7,30.11,SW,225,3.7,-999.0,20,-99.99,,,0.00,Acu-Link.com,2013-03-03 06:13:00,
2013-03-02 22:28:00,49.8,11.5,30.10,SW,225,0.0,-999.0,21,-99.99,,,0.00,Acu-Link.com,2013-03-03 06:28:00,
2013-03-02 22:43:00,49.6,11.3,30.10,SSE,157,3.7,-999.0,21,-99.99,,,0.00,Acu-Link.com,2013-03-03 06:43:00,
2013-03-02 22:58:00,49.1,11.9,30.10,WNW,292,3.2,-999.0,22,-99.99,,,0.00,Acu-Link.com,2013-03-03 06:58:00,
2013-03-02 23:13:00,48.4,11.3,30.09,SE,135,0.0,-999.0,22,-99.99,,,0.00,Acu-Link.com,2013-03-03 07:13:00,
2013-03-02 23:28:00,48.0,12.0,30.09,SW,225,0.0,-999.0,23,-99.99,,,0.00,Acu-Link.com,2013-03-03 07:28:00,
2013-03-02 23:43:00,48.2,11.2,30.08,WNW,292,0.0,-999.0,22,-99.99,,,0.00,Acu-Link.com,2013-03-03 07:43:00,
2013-03-02 23:58:00,48.0,13.0,30.08,South,180,1.7,-999.0,24,-99.99,,,0.00,Acu-Link.com,2013-03-03 07:58:00,